[[{"header":{"parameterUnit":"m.s-1","parameterCategory":1,"la1":30.2991,"la2":30.254,"lo1":-89.0895,"lo2":-89.0444,"dy":0.0017,"dx":0.0017,"nx":28,"ny":28,"refTime":"2025-08-28T09:00:00:Z","depth":0,"parameterNumber":2,"parameterNumberName":"U-component_of_WINDS"},"data":[0,0,0,0,0,0,0,0,0,0,0,0,0,0,0,0,0,0,0,0,0,0,0,0,0,0,0,0,0,0,0,0,0,0,0,0,0,0,0,0,0,0,0,0,0,0,0,0,0,0,0,0,0,0,0,0,0,0,5.0236,5.0236,0,5.0269,5.0269,5.0269,5.0192,5.0189,5.0187,5.0185,5.022,5.0223,5.0226,0,0,0,0,0,0,0,0,0,0,0,0,0,5.0104,5.0107,5.0236,5.0236,5.0236,5.0269,5.0269,5.0269,5.0192,5.0189,5.0186,5.0183,5.0219,5.0222,5.0226,0,0,0,0,0,0,0,0,0,0,0,0,0,5.0152,5.0108,5.0235,5.0202,5.0199,5.0268,5.0269,5.027,5.0193,5.0189,5.0185,5.0182,5.0217,5.0222,5.0227,5.0331,0,0,5.0242,5.0244,0,0,0,0,0,0,0,0,5.0149,5.0157,5.0206,5.0204,5.0201,5.0222,5.0235,5.029,5.0194,5.0195,5.0184,5.018,5.0224,5.0228,5.0242,5.0333,5.0334,5.0242,5.0245,5.0247,5.0248,0,0,0,0,0,0,0,5.0146,5.0155,5.0249,5.0207,5.0204,5.0184,5.0187,5.0245,5.023,5.0195,5.0189,5.0194,5.0221,5.0238,5.0242,5.0335,5.0242,5.0246,5.0249,5.0251,5.0507,5.0511,0,0,0,0,0,0,5.0147,5.0153,5.0248,5.025,5.0165,5.019,5.0193,5.0219,5.0229,5.0227,5.0197,5.019,5.0231,5.0237,5.0243,5.0362,5.0247,5.0252,5.0254,5.0503,5.0508,5.0512,0,0,0,0,0,0,5.0144,5.0156,5.0246,5.02,5.0209,5.0196,5.0226,5.0222,5.0238,5.0231,5.0228,5.0217,5.0228,5.0236,5.0308,5.0362,5.0254,5.0258,5.0499,5.0505,5.051,5.0602,0,0,0,0,0,0,5.0141,5.0156,5.0196,5.0201,5.0212,5.0312,5.023,5.0225,5.0246,5.0238,5.0248,5.0246,5.0226,5.0302,5.0313,5.0367,5.0262,5.0494,5.0501,5.0508,5.0594,5.0611,5.0624,0,0,0,0,0,5.0137,5.0222,5.0198,5.021,5.0262,5.0315,5.0321,5.0296,5.0251,5.029,5.0285,5.0246,5.0355,5.031,5.0322,5.0378,5.049,5.0499,5.0508,5.0588,5.0607,5.0624,0,0,0,0,0,0,5.0225,5.0222,5.0196,5.0285,5.0301,5.0302,5.0351,5.0319,5.0347,5.0338,5.0306,5.0309,5.0386,5.039,5.0339,5.0477,5.0415,5.0426,5.0471,5.049,5.0505,5.0501,5.0266,0,0,0,0,0,5.0255,5.0298,5.0293,5.0373,5.0381,5.0365,5.0387,5.0366,5.0381,5.0387,5.0388,5.0404,5.044,5.0466,5.0501,5.0595,5.0594,5.064,5.0655,5.0667,5.0676,5.0722,5.0741,5.0541,5.0541,5.0541,0,0,5.0317,5.032,5.035,5.039,5.04,5.0443,5.0371,5.0422,5.0454,5.0395,5.0461,5.0463,5.0478,5.0561,5.0597,5.0566,5.0732,5.0678,5.0688,5.0691,5.0733,5.0752,5.0769,5.0547,5.0546,5.0545,0,0,5.0451,5.046,5.0525,5.0535,5.0549,5.0537,5.0553,5.0558,5.0556,5.0622,5.0577,5.0615,5.0682,5.0693,5.0707,5.0843,5.0807,5.0856,5.0933,5.0978,5.0994,5.1008,5.1052,5.1069,5.0866,5.0866,5.0866,0,5.0527,5.0591,5.0562,5.0615,5.0632,5.058,5.0643,5.0655,5.0681,5.0694,5.0659,5.0737,5.0745,5.0827,5.0859,5.0875,5.0889,5.0853,5.0994,5.1008,5.102,5.1062,5.1079,5.0871,5.0871,5.087,5.087,0,5.0681,5.0726,5.0777,5.08,5.0824,5.0882,5.0861,5.0888,5.0865,5.0856,5.0922,5.0929,5.0961,5.098,5.0959,5.1059,5.1038,5.1,5.0936,5.1045,5.1083,5.11,5.0879,5.0877,5.0876,5.0874,0,0,5.0872,5.0876,5.0895,5.0903,5.0914,5.0948,5.1003,5.1033,5.1055,5.1075,5.1118,5.1174,5.1137,5.1153,5.1133,5.1173,5.1275,5.1128,5.1128,5.1152,5.138,5.1406,5.1426,5.1252,5.1255,5.1257,5.1377,0,5.1002,5.1094,5.1068,5.1161,5.12,5.115,5.1197,5.1208,5.1201,5.1233,5.1226,5.1264,5.1214,5.1223,5.1261,5.1254,5.1319,5.1246,5.1289,5.1291,5.1283,5.1447,5.1475,5.1589,5.1393,5.1395,5.1397,0,5.1165,5.1187,5.1283,5.1283,5.1299,5.1342,5.1365,5.1398,5.1408,5.14,5.1417,5.1387,5.144,5.1378,5.1448,5.1398,5.1415,5.1414,5.1418,5.1418,5.1348,5.1448,5.1625,5.164,5.1422,5.142,5.1418,0,5.129,5.1344,5.1407,5.1416,5.1419,5.1449,5.1452,5.1459,5.1478,5.1499,5.151,5.1539,5.1553,5.1575,5.1553,5.1511,5.1625,5.1562,5.1617,5.1618,5.1641,5.164,5.182,5.1659,5.1658,5.1658,5.1658,0,5.1435,5.1494,5.1462,5.1501,5.1565,5.1534,5.1599,5.1596,5.1602,5.1638,5.1598,5.1632,5.1603,5.1635,5.1618,5.1676,5.1684,5.1678,5.1672,5.1679,5.1679,5.1687,5.1677,5.1663,5.1662,5.1661,5.166,0,5.1584,5.1565,5.1629,5.1626,5.1626,5.1673,5.167,5.1704,5.1694,5.174,5.1749,5.1732,5.1767,5.1748,5.1785,5.1773,5.1847,5.1833,5.1843,5.1838,5.1892,5.1886,5.2081,5.2103,5.1931,5.1933,5.1935,0,5.1676,5.172,5.172,5.174,5.1744,5.1779,5.1796,5.1768,5.1788,5.1802,5.1834,5.1866,5.1888,5.1946,5.1938,5.1965,5.1948,5.2014,5.1952,5.1956,5.1944,5.194,5.1942,5.2026,5.2028,5.203,5.2031,0,5.184,5.1827,5.1854,5.1877,5.1898,5.1916,5.193,5.1949,5.192,5.1945,5.1979,5.1996,5.2032,5.2062,5.2085,5.2087,5.2054,5.2051,5.2064,5.207,5.2072,5.2068,5.1873,5.2046,5.2045,5.2043,5.2043,5.2042,5.196,5.1995,5.1999,5.2029,5.2035,5.2048,5.2079,5.2071,5.2099,5.2124,5.2107,5.2146,5.2153,5.2179,5.2185,5.2215,5.2188,5.2209,5.2213,5.2218,5.2223,5.2071,5.222,5.2219,5.2219,5.2219,5.2218,0,5.2118,5.2117,5.2145,5.2164,5.2187,5.2153,5.2165,5.2187,5.2221,5.223,5.2253,5.229,5.2319,5.2312,5.2337,5.2362,5.2347,5.2369,5.2365,5.2365,5.2248,5.2232,5.238,5.238,5.238,5.238,5.238,5.238,5.2202,5.2257,5.2245,5.2303,5.2302,5.2338,5.2348,5.2359,5.2365,5.2408,5.2431,5.2425,5.2427,5.2451,5.2475,5.2472,5.2482,5.2509,5.25,5.239,5.2374,5.2359,5.2343,5.2512,5.2513,5.2614,5.2615,5.2616]},{"header":{"parameterUnit":"m.s-1","parameterCategory":1,"la1":30.2991,"la2":30.254,"lo1":-89.0895,"lo2":-89.0444,"dy":0.0017,"dx":0.0017,"nx":28,"ny":28,"refTime":"2025-08-28T09:00:00:Z","depth":0,"parameterNumber":3,"parameterNumberName":"V-component_of_WINDS"},"data":[0,0,0,0,0,0,0,0,0,0,0,0,0,0,0,0,0,0,0,0,0,0,0,0,0,0,0,0,0,0,0,0,0,0,0,0,0,0,0,0,0,0,0,0,0,0,0,0,0,0,0,0,0,0,0,0,0,0,3.9977,3.9979,0,4.0197,4.02,4.0202,4.022,4.0218,4.0215,4.0213,4.0442,4.045,4.0458,0,0,0,0,0,0,0,0,0,0,0,0,0,3.9573,3.9581,3.9977,3.998,3.9982,4.0197,4.02,4.0203,4.0221,4.0218,4.0215,4.0212,4.0439,4.0449,4.0459,0,0,0,0,0,0,0,0,0,0,0,0,0,3.9767,3.9583,3.9976,4.0017,4.0023,4.0196,4.02,4.0204,4.0221,4.0218,4.0214,4.0211,4.0436,4.0448,4.046,4.0609,0,0,4.0498,4.0504,0,0,0,0,0,0,0,0,3.9756,3.9781,4.0008,4.0014,4.0021,4.0177,4.0141,4.034,4.0222,4.0146,4.0213,4.0209,4.0357,4.0376,4.0425,4.062,4.063,4.0499,4.0507,4.0512,4.0516,0,0,0,0,0,0,0,3.9742,3.9772,4.0064,4.0011,4.002,4.0025,4.0048,4.0179,4.0269,4.0152,4.0154,4.018,4.036,4.0413,4.043,4.0633,4.0499,4.051,4.0518,4.0523,4.096,4.0964,0,0,0,0,0,0,3.9721,3.9761,4.0057,4.0071,3.9877,4.0035,4.0061,4.0131,4.0268,4.0285,4.0183,4.018,4.0393,4.0416,4.0438,4.0622,4.0512,4.0524,4.0531,4.0956,4.0961,4.0966,0,0,0,0,0,0,3.9712,3.9747,4.0048,3.9916,3.9955,4.0046,4.0124,4.0137,4.019,4.029,4.0307,4.022,4.0391,4.0421,4.0566,4.063,4.0529,4.0541,4.0951,4.0958,4.0964,4.0989,0,0,0,0,0,0,3.97,3.9744,3.9801,3.9917,3.9962,4.0172,4.0128,4.0144,4.0212,4.021,4.033,4.0347,4.0391,4.0547,4.0579,4.0645,4.055,4.0946,4.0954,4.0962,4.0983,4.0995,4.1006,0,0,0,0,0,3.9686,3.98,3.9804,3.9839,4.0035,4.0175,4.0201,4.0249,4.0217,4.0275,4.0339,4.0343,4.0617,4.0562,4.0597,4.0669,4.0942,4.0952,4.0961,4.0977,4.0993,4.1005,0,0,0,0,0,0,3.969,3.9816,3.9822,3.9977,4.0065,4.0178,4.0253,4.0263,4.0363,4.0358,4.0414,4.0441,4.0584,4.0641,4.0577,4.082,4.0777,4.0793,4.0777,4.0792,4.0804,4.0787,4.0561,0,0,0,0,0,3.9709,3.9811,3.9916,4.0043,4.0087,4.0162,4.0225,4.0254,4.0348,4.0386,4.0461,4.0553,4.066,4.0729,4.0833,4.0991,4.1017,4.1057,4.1068,4.1077,4.1091,4.1178,4.1197,4.0996,4.0996,4.0996,0,0,3.9749,3.9831,3.9892,4.0046,4.0118,4.0223,4.0194,4.0307,4.0386,4.0404,4.0545,4.0603,4.0709,4.0861,4.0931,4.0913,4.1153,4.1089,4.1096,4.1105,4.119,4.1209,4.1226,4.1003,4.1002,4.1001,0,0,3.9876,3.9948,4.0061,4.0133,4.0242,4.0291,4.0318,4.043,4.0469,4.0611,4.0626,4.0721,4.0905,4.0979,4.1041,4.1195,4.1202,4.1228,4.1288,4.1372,4.1388,4.1402,4.1457,4.1476,4.1241,4.1241,4.1241,0,3.9913,4.0071,4.0118,4.0231,4.0298,4.0317,4.0433,4.0501,4.0638,4.0684,4.0661,4.0891,4.0964,4.1133,4.117,4.122,4.1253,4.1214,4.1382,4.1397,4.1411,4.1463,4.1484,4.1244,4.1243,4.1243,4.1243,0,4.0111,4.022,4.0299,4.0429,4.0505,4.0619,4.0683,4.0755,4.0777,4.0828,4.0973,4.1061,4.1183,4.1225,4.1248,4.1398,4.1383,4.137,4.1328,4.1431,4.1482,4.1502,4.1247,4.1246,4.1245,4.1245,0,0,4.0248,4.0402,4.043,4.0489,4.0609,4.0695,4.0809,4.0927,4.0987,4.1081,4.1178,4.1332,4.1321,4.1391,4.1423,4.1497,4.1613,4.1475,4.1479,4.1498,4.1782,4.1791,4.1814,4.1618,4.1622,4.1625,4.1773,0,4.0388,4.059,4.0635,4.081,4.0911,4.0931,4.103,4.1115,4.1166,4.1261,4.1318,4.1426,4.1403,4.1445,4.1519,4.1583,4.1671,4.1573,4.1709,4.1713,4.1682,4.184,4.185,4.1986,4.1793,4.1797,4.1799,0,4.0579,4.0675,4.0859,4.0966,4.101,4.1098,4.121,4.1299,4.1396,4.1428,4.1506,4.153,4.1649,4.1601,4.1767,4.1699,4.1758,4.1797,4.1804,4.1818,4.1763,4.1859,4.203,4.205,4.1831,4.1828,4.1826,0,4.0659,4.0836,4.0968,4.1019,4.1146,4.1207,4.1264,4.1357,4.1424,4.1522,4.1566,4.1677,4.1738,4.1823,4.1876,4.1836,4.2038,4.1994,4.2068,4.2067,4.211,4.2106,4.2293,4.2147,4.2147,4.2147,4.2146,0,4.0811,4.0923,4.1006,4.1088,4.1213,4.1264,4.1388,4.1444,4.1527,4.162,4.1644,4.1731,4.1796,4.1892,4.1935,4.2065,4.2093,4.2122,4.2132,4.212,4.2117,4.216,4.2152,4.2152,4.2151,4.215,4.2149,0,4.0923,4.0983,4.1129,4.1237,4.1267,4.1354,4.1447,4.1528,4.1579,4.1696,4.1727,4.1808,4.1922,4.1984,4.2128,4.2156,4.2302,4.2307,4.2269,4.2274,4.2344,4.2337,4.2565,4.2597,4.243,4.2431,4.2433,0,4.1016,4.1102,4.1219,4.1282,4.1339,4.1441,4.151,4.1564,4.1634,4.1751,4.1817,4.1932,4.2028,4.221,4.2282,4.2392,4.24,4.2472,4.2416,4.2401,4.2401,4.2395,4.2404,4.2482,4.2483,4.2484,4.2485,0,4.1174,4.1199,4.1297,4.1405,4.1486,4.1574,4.1661,4.1712,4.178,4.1858,4.1975,4.2049,4.2195,4.2309,4.2424,4.2483,4.2496,4.2502,4.2525,4.2514,4.2488,4.2503,4.2296,4.2497,4.2496,4.2495,4.2494,4.2494,4.1279,4.1356,4.145,4.1558,4.1629,4.1709,4.179,4.185,4.1948,4.207,4.2096,4.2219,4.2314,4.247,4.2532,4.2629,4.2615,4.2648,4.2657,4.2664,4.2667,4.2472,4.2651,4.265,4.265,4.265,4.265,0,4.1438,4.1499,4.1598,4.1718,4.1803,4.1806,4.1903,4.1974,4.2081,4.2168,4.2261,4.2394,4.2505,4.2586,4.2699,4.2762,4.277,4.279,4.2786,4.2799,4.2673,4.2642,4.2781,4.2781,4.2781,4.2781,4.278,4.278,4.1531,4.1662,4.1698,4.1863,4.1924,4.2044,4.2099,4.2173,4.2242,4.239,4.2482,4.2533,4.2618,4.2737,4.2839,4.286,4.29,4.2919,4.294,4.2822,4.2808,4.2795,4.2765,4.2928,4.2928,4.3058,4.3059,4.306]}]]